| time (UTC) | temp F | wind direction | speed knots | gust knots | rain 1hr in | rain 24hr in | rain mn in | humidity % | barometer mb |
| 20260903013802 | 86 | 288 | 0.9 | 1.7 | 0.00 | 0.00 | 0.00 | 52 | 1014.5 |
| 20260903012802 | 86 | 247 | 0.9 | 2.6 | 0.00 | 0.00 | 0.00 | 50 | 1014.1 |
| 20260903012306 | 86 | 85 | 0.9 | 4.3 | 0.00 | 0.00 | 0.00 | 50 | 1014.0 |
| 20260903011803 | 87 | 281 | 0.9 | 1.7 | 0.00 | 0.00 | 0.00 | 49 | 1014.0 |
| 20260903010802 | 87 | 189 | 0.9 | 4.3 | 0.00 | 0.00 | 0.00 | 48 | 1014.2 |
| 20260903010303 | 87 | 348 | 0.9 | 1.7 | 0.00 | 0.00 | 0.00 | 47 | 1014.2 |
| 20260903005803 | 88 | 214 | 0.9 | 2.6 | 0.00 | 0.00 | 0.00 | 47 | 1014.2 |
| 20260903005306 | 88 | 86 | 0.9 | 6.1 | 0.00 | 0.00 | 0.00 | 47 | 1014.2 |
| 20260903004302 | 89 | 145 | 0.9 | 4.3 | 0.00 | 0.00 | 0.00 | 44 | 1014.1 |
| 20260903003802 | 89 | 277 | 0.9 | 2.6 | 0.00 | 0.00 | 0.00 | 43 | 1014.1 |
| 20260903003303 | 89 | 101 | 0.0 | 4.3 | 0.00 | 0.00 | 0.00 | 42 | 1014.1 |
| 20260903002802 | 90 | 170 | 0.9 | 4.3 | 0.00 | 0.00 | 0.00 | 41 | 1014.2 |
| 20260903002306 | 90 | 235 | 0.9 | 2.6 | 0.00 | 0.00 | 0.00 | 40 | 1014.2 |
| 20260903001803 | 91 | 103 | 0.9 | 2.6 | 0.00 | 0.00 | 0.00 | 38 | 1014.2 |
| 20260903001303 | 91 | 137 | 0.9 | 2.6 | 0.00 | 0.00 | 0.00 | 37 | 1014.2 |
| 20260903000303 | 92 | 163 | 1.7 | 1.7 | 0.00 | 0.00 | 0.00 | 36 | 1013.7 |
| 20260902235802 | 92 | 80 | 1.7 | 4.3 | 0.00 | 0.00 | 0.00 | 36 | 1013.7 |
| 20260902235305 | 92 | 88 | 0.9 | 2.6 | 0.00 | 0.00 | 0.00 | 35 | 1013.7 |
| 20260902233802 | 93 | 256 | 0.9 | 5.2 | 0.00 | 0.00 | 0.00 | 34 | 1013.9 |
| 20260902232802 | 94 | 350 | 1.7 | 4.3 | 0.00 | 0.00 | 0.00 | 32 | 1014.2 |
| 20260902232306 | 94 | 137 | 1.7 | 7.0 | 0.00 | 0.00 | 0.00 | 32 | 1014.2 |
| 20260902231302 | 96 | 100 | 1.7 | 5.2 | 0.00 | 0.00 | 0.00 | 29 | 1014.2 |
| 20260902230803 | 98 | 171 | 1.7 | 2.6 | 0.00 | 0.00 | 0.00 | 26 | 1014.1 |
| 20260902230302 | 100 | 129 | 0.9 | 4.3 | 0.00 | 0.00 | 0.00 | 25 | 1014.1 |
| 20260902225802 | 101 | 97 | 0.0 | 1.7 | 0.00 | 0.00 | 0.00 | 25 | 1014.1 |
| 20260902225306 | 102 | 249 | 0.9 | 2.6 | 0.00 | 0.00 | 0.00 | 24 | 1014.1 |
| 20260902224802 | 102 | 146 | 0.9 | 2.6 | 0.00 | 0.00 | 0.00 | 25 | 1013.9 |
| 20260902223803 | 102 | 144 | 1.7 | 4.3 | 0.00 | 0.00 | 0.00 | 24 | 1013.9 |
| 20260902223302 | 102 | 135 | 1.7 | 5.2 | 0.00 | 0.00 | 0.00 | 24 | 1013.9 |
| 20260902222803 | 101 | 100 | 1.7 | 5.2 | 0.00 | 0.00 | 0.00 | 26 | 1014.2 |
| 20260902222305 | 100 | 100 | 1.7 | 4.3 | 0.00 | 0.00 | 0.00 | 27 | 1014.1 |
| 20260902221803 | 100 | 100 | 1.7 | 5.2 | 0.00 | 0.00 | 0.00 | 27 | 1014.1 |
| 20260902221304 | 99 | 117 | 3.5 | 7.8 | 0.00 | 0.00 | 0.00 | 28 | 1014.1 |
| 20260902220802 | 100 | 57 | 4.3 | 12.2 | 0.00 | 0.00 | 0.00 | 28 | 1014.2 |
| 20260902215802 | 101 | 122 | 1.7 | 5.2 | 0.00 | 0.00 | 0.00 | 27 | 1014.2 |
| 20260902215306 | 100 | 122 | 1.7 | 6.1 | 0.00 | 0.00 | 0.00 | 28 | 1014.2 |
| 20260902214802 | 102 | 122 | 0.9 | 5.2 | 0.00 | 0.00 | 0.00 | 28 | 1014.4 |
| 20260902214303 | 102 | 201 | 2.6 | 5.2 | 0.00 | 0.00 | 0.00 | 27 | 1014.4 |
| 20260902213302 | 101 | 122 | 2.6 | 7.0 | 0.00 | 0.00 | 0.00 | 27 | 1014.4 |
| 20260902212803 | 101 | 57 | 1.7 | 5.2 | 0.00 | 0.00 | 0.00 | 29 | 1014.5 |
| 20260902210802 | 101 | 101 | 1.7 | 6.1 | 0.00 | 0.00 | 0.00 | 30 | 1014.8 |
| 20260902210302 | 101 | 302 | 3.5 | 5.2 | 0.00 | 0.00 | 0.00 | 32 | 1014.8 |
| 20260902205802 | 99 | 146 | 4.3 | 10.4 | 0.00 | 0.00 | 0.00 | 31 | 1014.8 |
| 20260902205306 | 100 | 126 | 2.6 | 10.4 | 0.00 | 0.00 | 0.00 | 31 | 1014.8 |
| 20260902204802 | 100 | 99 | 4.3 | 8.7 | 0.00 | 0.00 | 0.00 | 33 | 1014.9 |
| 20260902204302 | 99 | 110 | 3.5 | 8.7 | 0.00 | 0.00 | 0.00 | 32 | 1014.9 |
| 20260902203803 | 99 | 100 | 4.3 | 7.8 | 0.00 | 0.00 | 0.00 | 32 | 1014.9 |
| 20260902203304 | 99 | 135 | 2.6 | 12.2 | 0.00 | 0.00 | 0.00 | 33 | 1014.9 |
| 20260902202803 | 100 | 172 | 2.6 | 12.2 | 0.00 | 0.00 | 0.00 | 32 | 1015.0 |
| 20260902202306 | 99 | 25 | 4.3 | 6.1 | 0.00 | 0.00 | 0.00 | 33 | 1015.0 |
| 20260902201802 | 98 | 117 | 2.6 | 5.2 | 0.00 | 0.00 | 0.00 | 33 | 1015.0 |
| 20260902201302 | 98 | 226 | 1.7 | 4.3 | 0.00 | 0.00 | 0.00 | 34 | 1015.0 |
| 20260902200303 | 98 | 311 | 5.2 | 7.0 | 0.00 | 0.00 | 0.00 | 32 | 1015.4 |
| 20260902195802 | 99 | 117 | 3.5 | 8.7 | 0.00 | 0.00 | 0.00 | 32 | 1015.4 |
| 20260902195306 | 100 | 156 | 2.6 | 8.7 | 0.00 | 0.00 | 0.00 | 32 | 1015.4 |
| 20260902194802 | 100 | 143 | 2.6 | 4.3 | 0.00 | 0.00 | 0.00 | 33 | 1015.5 |
| 20260902194303 | 101 | 230 | 3.5 | 2.6 | 0.00 | 0.00 | 0.00 | 33 | 1015.5 |
| 20260902193803 | 99 | 214 | 4.3 | 6.1 | 0.00 | 0.00 | 0.00 | 33 | 1015.5 |
| 20260902193302 | 99 | 136 | 4.3 | 8.7 | 0.00 | 0.00 | 0.00 | 33 | 1015.5 |
| 20260902192802 | 100 | 100 | 2.6 | 10.4 | 0.00 | 0.00 | 0.00 | 33 | 1015.6 |
| 20260902192306 | 100 | 145 | 2.6 | 10.4 | 0.00 | 0.00 | 0.00 | 35 | 1015.6 |
| 20260902191803 | 98 | 146 | 1.7 | 5.2 | 0.00 | 0.00 | 0.00 | 36 | 1015.6 |
| 20260902191302 | 98 | 302 | 2.6 | 2.6 | 0.00 | 0.00 | 0.00 | 37 | 1015.6 |
| 20260902185802 | 97 | 123 | 4.3 | 6.1 | 0.00 | 0.00 | 0.00 | 36 | 1016.0 |
| 20260902185306 | 98 | 99 | 4.3 | 7.8 | 0.00 | 0.00 | 0.00 | 37 | 1016.0 |
| 20260902184803 | 97 | 145 | 4.3 | 7.8 | 0.00 | 0.00 | 0.00 | 37 | 1016.0 |
| 20260902184302 | 97 | 94 | 4.3 | 6.1 | 0.00 | 0.00 | 0.00 | 37 | 1016.0 |
| 20260902183802 | 97 | 100 | 4.3 | 13.0 | 0.00 | 0.00 | 0.00 | 38 | 1016.0 |
| 20260902183303 | 97 | 110 | 2.6 | 7.8 | 0.00 | 0.00 | 0.00 | 38 | 1016.0 |
| 20260902182802 | 97 | 144 | 1.7 | 5.2 | 0.00 | 0.00 | 0.00 | 40 | 1016.2 |
| 20260902182306 | 96 | 171 | 3.5 | 7.8 | 0.00 | 0.00 | 0.00 | 41 | 1016.2 |
| 20260902181802 | 94 | 99 | 4.3 | 7.8 | 0.00 | 0.00 | 0.00 | 42 | 1016.2 |
| 20260902181302 | 93 | 320 | 4.3 | 10.4 | 0.00 | 0.00 | 0.00 | 41 | 1016.2 |
| 20260902180303 | 92 | 117 | 5.2 | 7.0 | 0.00 | 0.00 | 0.00 | 43 | 1016.5 |
| 20260902175803 | 92 | 300 | 5.2 | 7.8 | 0.00 | 0.00 | 0.00 | 43 | 1016.5 |
| 20260902175307 | 92 | 273 | 4.3 | 11.3 | 0.00 | 0.00 | 0.00 | 44 | 1016.5 |
| 20260902174803 | 92 | 81 | 4.3 | 11.3 | 0.00 | 0.00 | 0.00 | 45 | 1016.8 |
| 20260902173802 | 91 | 260 | 2.6 | 6.1 | 0.00 | 0.00 | 0.00 | 48 | 1016.8 |
| 20260902173303 | 91 | 162 | 5.2 | 8.7 | 0.00 | 0.00 | 0.00 | 48 | 1016.8 |
| 20260902171303 | 89 | 341 | 5.2 | 13.0 | 0.00 | 0.00 | 0.00 | 48 | 1017.0 |
| 20260902170802 | 90 | 100 | 4.3 | 13.0 | 0.00 | 0.00 | 0.00 | 47 | 1017.1 |
| 20260902165803 | 89 | 122 | 4.3 | 10.4 | 0.00 | 0.00 | 0.00 | 49 | 1017.1 |
| 20260902165308 | 89 | 88 | 5.2 | 10.4 | 0.00 | 0.00 | 0.00 | 48 | 1017.1 |
| 20260902164803 | 89 | 322 | 4.3 | 13.9 | 0.00 | 0.00 | 0.00 | 48 | 1017.2 |
| 20260902164302 | 89 | 83 | 5.2 | 15.6 | 0.00 | 0.00 | 0.00 | 48 | 1017.2 |
| 20260902163802 | 89 | 324 | 5.2 | 15.6 | 0.00 | 0.00 | 0.00 | 49 | 1017.2 |
| 20260902163303 | 89 | 100 | 7.0 | 13.0 | 0.00 | 0.00 | 0.00 | 48 | 1017.2 |
| 20260902162802 | 88 | 210 | 6.1 | 13.0 | 0.00 | 0.00 | 0.00 | 48 | 1017.3 |
| 20260902162306 | 88 | 250 | 5.2 | 8.7 | 0.00 | 0.00 | 0.00 | 50 | 1017.3 |
| 20260902161802 | 88 | 77 | 5.2 | 15.6 | 0.00 | 0.00 | 0.00 | 50 | 1017.3 |
| 20260902161302 | 87 | 83 | 4.3 | 15.6 | 0.00 | 0.00 | 0.00 | 50 | 1017.3 |
| 20260902160803 | 87 | 347 | 4.3 | 7.0 | 0.00 | 0.00 | 0.00 | 51 | 1017.6 |
| 20260902155803 | 87 | 303 | 6.1 | 8.7 | 0.00 | 0.00 | 0.00 | 51 | 1017.6 |
| 20260902155306 | 87 | 83 | 7.0 | 8.7 | 0.00 | 0.00 | 0.00 | 51 | 1017.6 |
| 20260902154802 | 86 | 256 | 7.0 | 7.8 | 0.00 | 0.00 | 0.00 | 51 | 1017.1 |
| 20260902154303 | 86 | 94 | 5.2 | 10.4 | 0.00 | 0.00 | 0.00 | 51 | 1017.1 |
| 20260902153802 | 86 | 257 | 5.2 | 15.6 | 0.00 | 0.00 | 0.00 | 51 | 1017.1 |
| 20260902153303 | 86 | 140 | 4.3 | 15.6 | 0.00 | 0.00 | 0.00 | 51 | 1017.1 |
| 20260902152803 | 86 | 75 | 4.3 | 7.0 | 0.00 | 0.00 | 0.00 | 53 | 1017.3 |
| 20260902152307 | 86 | 118 | 4.3 | 8.7 | 0.00 | 0.00 | 0.00 | 53 | 1017.3 |
| 20260902151803 | 86 | 101 | 4.3 | 4.3 | 0.00 | 0.00 | 0.00 | 56 | 1017.3 |
| 20260902151303 | 85 | 42 | 2.6 | 6.1 | 0.00 | 0.00 | 0.00 | 56 | 1017.3 |
| 20260902150803 | 85 | 258 | 2.6 | 5.2 | 0.00 | 0.00 | 0.00 | 57 | 1017.1 |
| 20260902145803 | 84 | 166 | 1.7 | 6.1 | 0.00 | 0.00 | 0.00 | 58 | 1017.1 |
| 20260902145305 | 84 | 78 | 2.6 | 6.1 | 0.00 | 0.00 | 0.00 | 58 | 1017.1 |
| 20260902144802 | 84 | 115 | 2.6 | 5.2 | 0.00 | 0.00 | 0.00 | 59 | 1017.2 |
| 20260902144303 | 83 | 145 | 2.6 | 6.1 | 0.00 | 0.00 | 0.00 | 59 | 1017.2 |
| 20260902143802 | 83 | 158 | 1.7 | 5.2 | 0.00 | 0.00 | 0.00 | 60 | 1017.2 |
| 20260902143303 | 83 | 154 | 2.6 | 4.3 | 0.00 | 0.00 | 0.00 | 60 | 1017.2 |
| 20260902142803 | 82 | 251 | 1.7 | 6.1 | 0.00 | 0.00 | 0.00 | 60 | 1017.1 |
| 20260902141802 | 82 | 237 | 1.7 | 4.3 | 0.00 | 0.00 | 0.00 | 61 | 1017.1 |
| 20260902141302 | 82 | 145 | 1.7 | 7.0 | 0.00 | 0.00 | 0.00 | 62 | 1017.1 |
| 20260902140802 | 81 | 121 | 1.7 | 7.0 | 0.00 | 0.00 | 0.00 | 62 | 1017.4 |
| 20260902135306 | 80 | 158 | 0.9 | 4.3 | 0.00 | 0.00 | 0.00 | 65 | 1017.4 |
| 20260902134303 | 80 | 145 | 0.9 | 4.3 | 0.00 | 0.00 | 0.00 | 67 | 1017.6 |
| 20260902133802 | 79 | 55 | 0.9 | 4.3 | 0.00 | 0.00 | 0.00 | 67 | 1017.6 |
| 20260902133303 | 79 | 122 | 0.9 | 4.3 | 0.00 | 0.00 | 0.00 | 69 | 1017.6 |
| 20260902132803 | 78 | 143 | 0.0 | 4.3 | 0.00 | 0.00 | 0.00 | 70 | 1016.9 |
| 20260902132306 | 78 | 80 | 0.0 | 0.0 | 0.00 | 0.00 | 0.00 | 70 | 1016.9 |
| 20260902131303 | 77 | 120 | 0.0 | 1.7 | 0.00 | 0.00 | 0.00 | 71 | 1016.9 |
| 20260902130803 | 77 | 348 | 0.0 | 0.0 | 0.00 | 0.00 | 0.00 | 72 | 1017.5 |
| 20260902130302 | 76 | 101 | 0.0 | 0.0 | 0.00 | 0.00 | 0.00 | 73 | 1017.5 |
| 20260902125803 | 76 | 143 | 0.0 | 0.0 | 0.00 | 0.00 | 0.00 | 73 | 1017.5 |
| 20260902125305 | 76 | 127 | 0.0 | 0.0 | 0.00 | 0.00 | 0.00 | 73 | 1017.5 |
| 20260902124303 | 76 | 110 | 0.0 | 1.7 | 0.00 | 0.00 | 0.00 | 74 | 1017.2 |
| 20260902123803 | 75 | 139 | 0.0 | 1.7 | 0.00 | 0.00 | 0.00 | 75 | 1017.2 |
| 20260902123302 | 75 | 62 | 0.0 | 0.0 | 0.00 | 0.00 | 0.00 | 75 | 1017.2 |
| 20260902122802 | 75 | 212 | 0.0 | 0.0 | 0.00 | 0.00 | 0.00 | 76 | 1017.2 |
| 20260902122305 | 75 | 163 | 0.0 | 0.0 | 0.00 | 0.00 | 0.00 | 77 | 1017.2 |
| 20260902121803 | 75 | 250 | 0.0 | 0.0 | 0.00 | 0.00 | 0.00 | 76 | 1017.2 |
| 20260902121303 | 74 | 176 | 0.0 | 0.0 | 0.00 | 0.00 | 0.00 | 76 | 1017.2 |
| 20260902120303 | 74 | 181 | 0.0 | 0.0 | 0.00 | 0.00 | 0.00 | 77 | 1016.9 |
| 20260902115803 | 74 | 121 | 0.0 | 0.0 | 0.00 | 0.00 | 0.00 | 76 | 1016.9 |
| 20260902115306 | 74 | 100 | 0.0 | 0.0 | 0.00 | 0.00 | 0.00 | 75 | 1016.9 |
| 20260902114302 | 74 | 100 | 0.0 | 0.0 | 0.00 | 0.00 | 0.00 | 73 | 1016.6 |
| 20260902113802 | 75 | 80 | 0.0 | 0.0 | 0.00 | 0.00 | 0.00 | 74 | 1016.6 |
| 20260902113303 | 75 | 145 | 0.0 | 0.0 | 0.00 | 0.00 | 0.00 | 74 | 1016.6 |
| 20260902112802 | 75 | 167 | 0.0 | 0.0 | 0.00 | 0.00 | 0.00 | 74 | 1016.7 |
| 20260902112305 | 75 | 143 | 0.0 | 0.0 | 0.00 | 0.00 | 0.00 | 75 | 1016.7 |
| 20260902111803 | 74 | 146 | 0.0 | 0.0 | 0.00 | 0.00 | 0.00 | 74 | 1016.7 |
| 20260902111303 | 74 | 129 | 0.0 | 0.0 | 0.00 | 0.00 | 0.00 | 74 | 1016.7 |
| 20260902110803 | 74 | 145 | 0.0 | 0.0 | 0.00 | 0.00 | 0.00 | 74 | 1016.6 |
| 20260902110303 | 74 | 92 | 0.0 | 0.0 | 0.00 | 0.00 | 0.00 | 74 | 1016.6 |
| 20260902105306 | 74 | 125 | 0.0 | 0.0 | 0.00 | 0.00 | 0.00 | 74 | 1016.5 |
| 20260902104803 | 74 | 278 | 0.0 | 0.0 | 0.00 | 0.00 | 0.00 | 73 | 1016.4 |
| 20260902104302 | 74 | 195 | 0.0 | 0.0 | 0.00 | 0.00 | 0.00 | 73 | 1016.4 |
| 20260902103804 | 74 | 279 | 0.0 | 0.0 | 0.00 | 0.00 | 0.00 | 73 | 1016.4 |
| 20260902103302 | 74 | 186 | 0.0 | 0.0 | 0.00 | 0.00 | 0.00 | 73 | 1016.4 |
| 20260902102803 | 74 | 322 | 0.0 | 0.0 | 0.00 | 0.00 | 0.00 | 72 | 1016.3 |
| 20260902102307 | 75 | 145 | 0.0 | 0.0 | 0.00 | 0.00 | 0.00 | 72 | 1016.3 |
| 20260902101803 | 75 | 187 | 0.0 | 0.0 | 0.00 | 0.00 | 0.00 | 72 | 1016.3 |
| 20260902100802 | 75 | 56 | 0.0 | 1.7 | 0.00 | 0.00 | 0.00 | 72 | 1016.2 |
| 20260902095306 | 76 | 154 | 0.0 | 0.0 | 0.00 | 0.00 | 0.00 | 71 | 1016.2 |
| 20260902094802 | 76 | 209 | 0.0 | 0.0 | 0.00 | 0.00 | 0.00 | 71 | 1015.7 |
| 20260902094302 | 76 | 127 | 0.0 | 0.0 | 0.00 | 0.00 | 0.00 | 71 | 1015.7 |
| 20260902093803 | 76 | 325 | 0.0 | 0.0 | 0.00 | 0.00 | 0.00 | 71 | 1015.7 |
| 20260902093302 | 76 | 285 | 0.0 | 2.6 | 0.00 | 0.00 | 0.00 | 71 | 1015.7 |
| 20260902092803 | 76 | 144 | 0.0 | 2.6 | 0.00 | 0.00 | 0.00 | 71 | 1016.0 |
| 20260902092305 | 76 | 136 | 0.0 | 0.0 | 0.00 | 0.00 | 0.00 | 71 | 1016.0 |
| 20260902091803 | 76 | 57 | 0.0 | 0.0 | 0.00 | 0.00 | 0.00 | 71 | 1016.0 |
| 20260902091303 | 76 | 114 | 0.0 | 0.0 | 0.00 | 0.00 | 0.00 | 71 | 1016.0 |
| 20260902090803 | 76 | 142 | 0.0 | 1.7 | 0.00 | 0.00 | 0.00 | 71 | 1016.0 |
| 20260902090302 | 76 | 124 | 0.0 | 1.7 | 0.00 | 0.00 | 0.00 | 71 | 1016.0 |
| 20260902085803 | 76 | 147 | 0.9 | 0.0 | 0.00 | 0.00 | 0.00 | 71 | 1016.0 |
| 20260902085306 | 76 | 100 | 0.9 | 2.6 | 0.00 | 0.00 | 0.00 | 71 | 1016.0 |
| 20260902084803 | 76 | 122 | 0.9 | 1.7 | 0.00 | 0.00 | 0.00 | 71 | 1016.0 |
| 20260902084303 | 76 | 140 | 0.9 | 1.7 | 0.00 | 0.00 | 0.00 | 71 | 1016.0 |
| 20260902083803 | 77 | 121 | 0.9 | 1.7 | 0.00 | 0.00 | 0.00 | 71 | 1016.0 |
| 20260902082803 | 77 | 123 | 0.9 | 2.6 | 0.00 | 0.00 | 0.00 | 70 | 1015.7 |
| 20260902082308 | 77 | 112 | 0.9 | 1.7 | 0.00 | 0.00 | 0.00 | 70 | 1015.7 |
| 20260902081802 | 77 | 122 | 0.9 | 4.3 | 0.00 | 0.00 | 0.00 | 70 | 1015.7 |
| 20260902080803 | 77 | 257 | 0.9 | 0.0 | 0.00 | 0.00 | 0.00 | 69 | 1016.1 |
| 20260902080303 | 77 | 132 | 0.9 | 5.2 | 0.00 | 0.00 | 0.00 | 69 | 1016.1 |
| 20260902075802 | 77 | 146 | 0.9 | 5.2 | 0.00 | 0.00 | 0.00 | 69 | 1016.1 |
| 20260902075306 | 77 | 157 | 0.9 | 4.3 | 0.00 | 0.00 | 0.00 | 69 | 1016.1 |
| 20260902074803 | 77 | 351 | 0.9 | 5.2 | 0.00 | 0.00 | 0.00 | 69 | 1015.9 |
| 20260902074302 | 77 | 145 | 1.7 | 5.2 | 0.00 | 0.00 | 0.00 | 69 | 1015.9 |
| 20260902073802 | 77 | 209 | 0.9 | 4.3 | 0.00 | 0.00 | 0.00 | 69 | 1015.9 |
| 20260902073303 | 78 | 122 | 1.7 | 4.3 | 0.00 | 0.00 | 0.00 | 69 | 1015.9 |
| 20260902072308 | 78 | 122 | 0.9 | 2.6 | 0.00 | 0.00 | 0.00 | 69 | 1016.0 |
| 20260902071303 | 78 | 134 | 0.9 | 0.0 | 0.00 | 0.00 | 0.00 | 68 | 1016.0 |
| 20260902070303 | 78 | 325 | 0.9 | 4.3 | 0.00 | 0.00 | 0.00 | 68 | 1015.9 |
| 20260902065803 | 78 | 114 | 0.9 | 2.6 | 0.00 | 0.00 | 0.00 | 67 | 1015.9 |
| 20260902065306 | 78 | 151 | 0.9 | 2.6 | 0.00 | 0.00 | 0.00 | 67 | 1015.9 |
| 20260902063802 | 78 | 142 | 1.7 | 2.6 | 0.00 | 0.00 | 0.00 | 67 | 1016.2 |
| 20260902063303 | 78 | 104 | 1.7 | 4.3 | 0.00 | 0.00 | 0.00 | 67 | 1016.2 |
| 20260902062803 | 78 | 101 | 0.9 | 4.3 | 0.00 | 0.00 | 0.00 | 67 | 1016.3 |
| 20260902061802 | 78 | 143 | 1.7 | 2.6 | 0.00 | 0.00 | 0.00 | 67 | 1016.3 |
| 20260902060303 | 79 | 145 | 1.7 | 4.3 | 0.00 | 0.00 | 0.00 | 67 | 1016.2 |
| 20260902055803 | 79 | 124 | 0.9 | 4.3 | 0.00 | 0.00 | 0.00 | 66 | 1016.2 |
| 20260902055306 | 79 | 145 | 0.9 | 2.6 | 0.00 | 0.00 | 0.00 | 66 | 1016.2 |
| 20260902054802 | 79 | 143 | 0.9 | 2.6 | 0.00 | 0.00 | 0.00 | 66 | 1016.0 |
| 20260902054302 | 79 | 122 | 1.7 | 2.6 | 0.00 | 0.00 | 0.00 | 65 | 1016.0 |
| 20260902053803 | 79 | 122 | 0.9 | 2.6 | 0.00 | 0.00 | 0.00 | 65 | 1016.0 |
| 20260902053303 | 79 | 145 | 0.9 | 2.6 | 0.00 | 0.00 | 0.00 | 64 | 1016.0 |
| 20260902052803 | 79 | 102 | 0.9 | 2.6 | 0.00 | 0.00 | 0.00 | 63 | 1016.2 |
| 20260902052306 | 79 | 82 | 0.9 | 4.3 | 0.00 | 0.00 | 0.00 | 62 | 1016.2 |
| 20260902051803 | 79 | 146 | 1.7 | 4.3 | 0.00 | 0.00 | 0.00 | 62 | 1016.2 |
| 20260902051303 | 79 | 100 | 1.7 | 1.7 | 0.00 | 0.00 | 0.00 | 62 | 1016.2 |
| 20260902050819 | 79 | 102 | 1.7 | 2.6 | 0.00 | 0.00 | 0.00 | 62 | 1016.0 |
| 20260902050302 | 79 | 120 | 1.7 | 2.6 | 0.00 | 0.00 | 0.00 | 61 | 1016.0 |
| 20260902045803 | 80 | 167 | 1.7 | 4.3 | 0.00 | 0.00 | 0.00 | 61 | 1016.0 |
| 20260902045306 | 80 | 141 | 1.7 | 4.3 | 0.00 | 0.00 | 0.00 | 61 | 1016.0 |
| 20260902044803 | 80 | 122 | 0.9 | 4.3 | 0.00 | 0.00 | 0.00 | 61 | 1015.7 |
| 20260902044303 | 79 | 20 | 0.9 | 2.6 | 0.00 | 0.00 | 0.00 | 60 | 1015.7 |
| 20260902043803 | 80 | 122 | 0.9 | 2.6 | 0.00 | 0.00 | 0.00 | 60 | 1015.7 |
| 20260902043302 | 80 | 141 | 0.0 | 1.7 | 0.00 | 0.00 | 0.00 | 59 | 1015.7 |
| 20260902042802 | 80 | 188 | 0.0 | 0.0 | 0.00 | 0.00 | 0.00 | 59 | 1015.7 |
| 20260902042308 | 80 | 181 | 0.0 | 1.7 | 0.00 | 0.00 | 0.00 | 60 | 1015.7 |
| 20260902041803 | 80 | 123 | 0.9 | 1.7 | 0.00 | 0.00 | 0.00 | 58 | 1015.7 |
| 20260902041302 | 80 | 138 | 0.9 | 4.3 | 0.00 | 0.00 | 0.00 | 58 | 1015.7 |
| 20260902040803 | 80 | 121 | 0.9 | 4.3 | 0.00 | 0.00 | 0.00 | 58 | 1015.9 |
| 20260902040303 | 80 | 104 | 0.9 | 4.3 | 0.00 | 0.00 | 0.00 | 58 | 1015.9 |
| 20260902035803 | 81 | 144 | 0.9 | 4.3 | 0.00 | 0.00 | 0.00 | 58 | 1015.9 |
| 20260902035305 | 80 | 92 | 0.0 | 2.6 | 0.00 | 0.00 | 0.00 | 58 | 1015.9 |
| 20260902034803 | 80 | 80 | 0.0 | 0.0 | 0.00 | 0.00 | 0.00 | 57 | 1016.0 |
| 20260902034303 | 80 | 104 | 0.0 | 1.7 | 0.00 | 0.00 | 0.00 | 56 | 1016.0 |
| 20260902033803 | 81 | 123 | 0.0 | 1.7 | 0.00 | 0.00 | 0.00 | 56 | 1016.0 |
| 20260902033303 | 81 | 161 | 0.0 | 0.0 | 0.00 | 0.00 | 0.00 | 57 | 1016.0 |
| 20260902032803 | 81 | 255 | 0.0 | 0.0 | 0.00 | 0.00 | 0.00 | 56 | 1015.9 |
| 20260902032305 | 81 | 136 | 0.0 | 0.0 | 0.00 | 0.00 | 0.00 | 55 | 1015.9 |
| 20260902031803 | 81 | 257 | 0.0 | 1.7 | 0.00 | 0.00 | 0.00 | 55 | 1015.9 |
| 20260902031303 | 81 | 112 | 0.0 | 1.7 | 0.00 | 0.00 | 0.00 | 55 | 1015.9 |
| 20260902030802 | 81 | 99 | 0.0 | 1.7 | 0.00 | 0.00 | 0.00 | 55 | 1015.7 |
| 20260902030303 | 81 | 223 | 0.0 | 0.0 | 0.00 | 0.00 | 0.00 | 55 | 1015.7 |
| 20260902025803 | 81 | 96 | 0.0 | 1.7 | 0.00 | 0.00 | 0.00 | 54 | 1015.7 |
| 20260902025306 | 81 | 125 | 0.0 | 0.0 | 0.00 | 0.00 | 0.00 | 55 | 1015.7 |
| 20260902024803 | 81 | 99 | 0.0 | 2.6 | 0.00 | 0.00 | 0.00 | 54 | 1015.5 |
| 20260902024303 | 82 | 148 | 0.9 | 0.0 | 0.00 | 0.00 | 0.00 | 54 | 1015.5 |
| 20260902023803 | 82 | 261 | 0.9 | 1.7 | 0.00 | 0.00 | 0.00 | 54 | 1015.5 |
| 20260902023303 | 82 | 142 | 0.9 | 2.6 | 0.00 | 0.00 | 0.00 | 54 | 1015.5 |
| 20260902022803 | 82 | 11 | 0.0 | 1.7 | 0.00 | 0.00 | 0.00 | 54 | 1015.3 |
| 20260902022305 | 82 | 137 | 0.0 | 0.0 | 0.00 | 0.00 | 0.00 | 53 | 1015.3 |
| 20260902021803 | 82 | 12 | 0.0 | 0.0 | 0.00 | 0.00 | 0.00 | 54 | 1015.3 |
| 20260902021303 | 82 | 259 | 0.0 | 0.0 | 0.00 | 0.00 | 0.00 | 54 | 1015.3 |
| 20260902020303 | 83 | 312 | 0.0 | 2.6 | 0.00 | 0.00 | 0.00 | 53 | 1015.4 |
| 20260902015803 | 83 | 210 | 0.0 | 0.0 | 0.00 | 0.00 | 0.00 | 53 | 1015.4 |
| 20260902015306 | 83 | 104 | 0.0 | 0.0 | 0.00 | 0.00 | 0.00 | 53 | 1015.4 |
| 20260902014802 | 83 | 257 | 0.0 | 0.0 | 0.00 | 0.00 | 0.00 | 52 | 1015.2 |
| 20260902014303 | 83 | 109 | 0.0 | 0.0 | 0.00 | 0.00 | 0.00 | 52 | 1015.2 |